| time (UTC) | temp F | wind direction | speed MPH | gust MPH | rain 1hr in | rain 24hr in | rain mn in | humidity % | barometer mb |
| 20260509051539 | 58 | 288 | 17.0 | 24.0 | 0.00 | 0.00 | 0.00 | 52 | 1012.0 |
| 20260509050046 | 59 | 281 | 12.0 | 19.0 | 0.00 | 0.00 | 0.00 | 49 | 1011.9 |
| 20260509044539 | 59 | 287 | 13.0 | 19.0 | 0.00 | 0.00 | 0.00 | 47 | 1011.8 |
| 20260509043043 | 60 | 292 | 15.0 | 21.0 | 0.00 | 0.00 | 0.00 | 47 | 1011.7 |
| 20260509041536 | 60 | 301 | 13.0 | 19.0 | 0.00 | 0.00 | 0.00 | 46 | 1011.9 |
| 20260509040044 | 60 | 327 | 8.0 | 14.0 | 0.00 | 0.00 | 0.00 | 45 | 1011.8 |
| 20260509034545 | 61 | 309 | 10.0 | 16.0 | 0.00 | 0.00 | 0.00 | 44 | 1011.6 |
| 20260509033039 | 62 | 309 | 12.0 | 21.0 | 0.00 | 0.00 | 0.00 | 43 | 1011.4 |
| 20260509031537 | 63 | 290 | 16.0 | 23.0 | 0.00 | 0.00 | 0.00 | 41 | 1010.9 |
| 20260509030036 | 63 | 292 | 7.0 | 12.0 | 0.00 | 0.00 | 0.00 | 26 | 1010.6 |
| 20260509024543 | 65 | 15 | 2.0 | 4.0 | 0.00 | 0.00 | 0.00 | 25 | 1009.8 |
| 20260509023041 | 65 | 16 | 3.0 | 7.0 | 0.00 | 0.00 | 0.00 | 24 | 1009.6 |
| 20260509021538 | 66 | 18 | 3.0 | 8.0 | 0.00 | 0.00 | 0.00 | 23 | 1009.4 |
| 20260509020038 | 67 | 19 | 4.0 | 8.0 | 0.00 | 0.00 | 0.00 | 22 | 1009.3 |
| 20260509014545 | 68 | 34 | 6.0 | 12.0 | 0.00 | 0.00 | 0.00 | 21 | 1009.3 |
| 20260509013051 | 68 | 9 | 7.0 | 13.0 | 0.00 | 0.00 | 0.00 | 21 | 1009.4 |
| 20260509011543 | 69 | 15 | 7.0 | 14.0 | 0.00 | 0.00 | 0.00 | 20 | 1009.3 |
| 20260509010036 | 70 | 24 | 10.0 | 15.0 | 0.00 | 0.00 | 0.00 | 20 | 1009.3 |
| 20260509004535 | 70 | 28 | 8.0 | 14.0 | 0.00 | 0.00 | 0.00 | 20 | 1009.2 |
| 20260509003036 | 71 | 15 | 10.0 | 19.0 | 0.00 | 0.00 | 0.00 | 20 | 1009.3 |
| 20260509001542 | 71 | 349 | 14.0 | 18.0 | 0.00 | 0.00 | 0.00 | 20 | 1009.1 |
| 20260509000040 | 71 | 12 | 14.0 | 19.0 | 0.00 | 0.00 | 0.00 | 19 | 1009.2 |
| 20260508234537 | 72 | 339 | 14.0 | 22.0 | 0.00 | 0.00 | 0.00 | 18 | 1009.2 |
| 20260508233047 | 72 | 340 | 12.0 | 22.0 | 0.00 | 0.00 | 0.00 | 18 | 1009.3 |
| 20260508231547 | 72 | 348 | 17.0 | 24.0 | 0.00 | 0.00 | 0.00 | 18 | 1009.5 |
| 20260508230052 | 72 | 346 | 12.0 | 23.0 | 0.00 | 0.00 | 0.00 | 19 | 1009.4 |
| 20260508224542 | 72 | 340 | 16.0 | 26.0 | 0.00 | 0.00 | 0.00 | 19 | 1009.6 |
| 20260508223037 | 73 | 335 | 19.0 | 25.0 | 0.00 | 0.00 | 0.00 | 19 | 1009.4 |
| 20260508221535 | 73 | 304 | 15.0 | 25.0 | 0.00 | 0.00 | 0.00 | 19 | 1009.6 |
| 20260508220043 | 73 | 337 | 16.0 | 24.0 | 0.00 | 0.00 | 0.00 | 19 | 1009.5 |
| 20260508214541 | 73 | 355 | 16.0 | 25.0 | 0.00 | 0.00 | 0.00 | 20 | 1009.6 |
| 20260508213041 | 73 | 330 | 19.0 | 33.0 | 0.00 | 0.00 | 0.00 | 19 | 1009.8 |
| 20260508211541 | 73 | 328 | 15.0 | 28.0 | 0.00 | 0.00 | 0.00 | 20 | 1009.8 |
| 20260508210045 | 73 | 5 | 17.0 | 25.0 | 0.00 | 0.00 | 0.00 | 21 | 1009.9 |
| 20260508204550 | 72 | 313 | 14.0 | 24.0 | 0.00 | 0.00 | 0.00 | 22 | 1009.7 |
| 20260508203050 | 72 | 312 | 14.0 | 26.0 | 0.00 | 0.00 | 0.00 | 22 | 1009.9 |
| 20260508201543 | 72 | 325 | 15.0 | 25.0 | 0.00 | 0.00 | 0.00 | 22 | 1009.7 |
| 20260508200047 | 72 | 286 | 14.0 | 25.0 | 0.00 | 0.00 | 0.00 | 22 | 1009.6 |
| 20260508194538 | 71 | 311 | 15.0 | 30.0 | 0.00 | 0.00 | 0.00 | 21 | 1009.9 |
| 20260508193036 | 72 | 297 | 16.0 | 25.0 | 0.00 | 0.00 | 0.00 | 22 | 1010.1 |
| 20260508191538 | 72 | 331 | 17.0 | 24.0 | 0.00 | 0.00 | 0.00 | 23 | 1010.1 |
| 20260508190042 | 71 | 320 | 15.0 | 27.0 | 0.00 | 0.00 | 0.00 | 24 | 1010.1 |
| 20260508184544 | 71 | 307 | 15.0 | 25.0 | 0.00 | 0.00 | 0.00 | 23 | 1010.3 |
| 20260508183036 | 70 | 257 | 13.0 | 24.0 | 0.00 | 0.00 | 0.00 | 25 | 1010.6 |
| 20260508181544 | 70 | 302 | 15.0 | 23.0 | 0.00 | 0.00 | 0.00 | 23 | 1010.7 |
| 20260508180035 | 70 | 298 | 14.0 | 23.0 | 0.00 | 0.00 | 0.00 | 25 | 1010.7 |
| 20260508174541 | 70 | 283 | 15.0 | 30.0 | 0.00 | 0.00 | 0.00 | 23 | 1010.8 |
| 20260508173038 | 70 | 308 | 15.0 | 23.0 | 0.00 | 0.00 | 0.00 | 23 | 1011.0 |
| 20260508171538 | 70 | 327 | 15.0 | 24.0 | 0.00 | 0.00 | 0.00 | 24 | 1011.0 |
| 20260508170040 | 68 | 330 | 12.0 | 22.0 | 0.00 | 0.00 | 0.00 | 25 | 1011.0 |
| 20260508164539 | 67 | 327 | 5.0 | 12.0 | 0.00 | 0.00 | 0.00 | 28 | 1011.2 |
| 20260508163035 | 66 | 342 | 3.0 | 9.0 | 0.00 | 0.00 | 0.00 | 34 | 1011.2 |
| 20260508161545 | 64 | 252 | 3.0 | 9.0 | 0.00 | 0.00 | 0.00 | 42 | 1011.6 |
| 20260508160036 | 64 | 263 | 3.0 | 7.0 | 0.00 | 0.00 | 0.00 | 46 | 1011.7 |
| 20260508154542 | 62 | 180 | 3.0 | 8.0 | 0.00 | 0.00 | 0.00 | 48 | 1011.7 |
| 20260508153047 | 60 | 190 | 5.0 | 9.0 | 0.00 | 0.00 | 0.00 | 54 | 1011.8 |
| 20260508151542 | 57 | 172 | 4.0 | 9.0 | 0.00 | 0.00 | 0.00 | 58 | 1011.8 |
| 20260508150041 | 55 | 159 | 5.0 | 10.0 | 0.00 | 0.00 | 0.00 | 57 | 1011.9 |
| 20260508144539 | 53 | 175 | 4.0 | 9.0 | 0.00 | 0.00 | 0.00 | 61 | 1012.1 |
| 20260508143048 | 51 | 184 | 4.0 | 8.0 | 0.00 | 0.00 | 0.00 | 66 | 1012.2 |
| 20260508141537 | 49 | 171 | 4.0 | 7.0 | 0.00 | 0.00 | 0.00 | 70 | 1012.3 |
| 20260508140038 | 47 | 165 | 5.0 | 9.0 | 0.00 | 0.00 | 0.00 | 73 | 1012.3 |
| 20260508134547 | 46 | 185 | 4.0 | 7.0 | 0.00 | 0.00 | 0.00 | 75 | 1012.5 |
| 20260508133037 | 45 | 186 | 6.0 | 9.0 | 0.00 | 0.00 | 0.00 | 78 | 1012.5 |
| 20260508131539 | 44 | 190 | 6.0 | 8.0 | 0.00 | 0.00 | 0.00 | 79 | 1012.4 |
| 20260508130051 | 43 | 167 | 5.0 | 7.0 | 0.00 | 0.00 | 0.00 | 80 | 1012.4 |
| 20260508124537 | 42 | 164 | 4.0 | 6.0 | 0.00 | 0.00 | 0.00 | 81 | 1012.2 |
| 20260508123051 | 41 | 168 | 4.0 | 6.0 | 0.00 | 0.00 | 0.00 | 81 | 1012.2 |
| 20260508121543 | 40 | 171 | 4.0 | 6.0 | 0.00 | 0.00 | 0.00 | 81 | 1012.3 |
| 20260508120048 | 40 | 175 | 4.0 | 8.0 | 0.00 | 0.00 | 0.00 | 80 | 1012.3 |
| 20260508114544 | 40 | 166 | 5.0 | 7.0 | 0.00 | 0.00 | 0.00 | 79 | 1012.1 |
| 20260508113035 | 40 | 188 | 3.0 | 5.0 | 0.00 | 0.00 | 0.00 | 78 | 1012.1 |
| 20260508111548 | 40 | 194 | 1.0 | 3.0 | 0.00 | 0.00 | 0.00 | 78 | 1012.1 |
| 20260508110040 | 40 | 194 | 1.0 | 3.0 | 0.00 | 0.00 | 0.00 | 78 | 1012.1 |
| 20260508104540 | 41 | 194 | 2.0 | 4.0 | 0.00 | 0.00 | 0.00 | 76 | 1012.2 |
| 20260508103043 | 41 | 195 | 1.0 | 4.0 | 0.00 | 0.00 | 0.00 | 75 | 1012.3 |
| 20260508101539 | 42 | 195 | 0.0 | 3.0 | 0.00 | 0.00 | 0.00 | 75 | 1012.3 |
| 20260508100042 | 42 | 195 | 1.0 | 3.0 | 0.00 | 0.00 | 0.00 | 74 | 1012.4 |
| 20260508094545 | 43 | 195 | 1.0 | 3.0 | 0.00 | 0.00 | 0.00 | 73 | 1012.5 |
| 20260508093037 | 43 | 0 | 0.0 | 5.0 | 0.00 | 0.00 | 0.00 | 72 | 1012.4 |
| 20260508091550 | 43 | 194 | 3.0 | 5.0 | 0.00 | 0.00 | 0.00 | 72 | 1012.4 |
| 20260508090051 | 44 | 193 | 3.0 | 6.0 | 0.00 | 0.00 | 0.00 | 71 | 1012.4 |
| 20260508084542 | 45 | 188 | 4.0 | 7.0 | 0.00 | 0.00 | 0.00 | 70 | 1012.5 |
| 20260508083041 | 45 | 153 | 3.0 | 5.0 | 0.00 | 0.00 | 0.00 | 68 | 1012.8 |
| 20260508081544 | 45 | 151 | 1.0 | 2.0 | 0.00 | 0.00 | 0.00 | 68 | 1012.9 |
| 20260508080042 | 45 | 151 | 2.0 | 5.0 | 0.00 | 0.00 | 0.00 | 67 | 1012.9 |
| 20260508074537 | 46 | 151 | 1.0 | 3.0 | 0.00 | 0.00 | 0.00 | 66 | 1013.0 |
| 20260508073044 | 47 | 151 | 2.0 | 5.0 | 0.00 | 0.00 | 0.00 | 64 | 1013.0 |
| 20260508071553 | 50 | 153 | 5.0 | 7.0 | 0.00 | 0.00 | 0.00 | 57 | 1013.0 |
| 20260508070052 | 52 | 217 | 4.0 | 14.0 | 0.00 | 0.00 | 0.00 | 58 | 1013.0 |
| 20260508064544 | 51 | 286 | 8.0 | 15.0 | 0.00 | 0.00 | 0.00 | 62 | 1012.9 |
| 20260508063041 | 50 | 252 | 0.0 | 5.0 | 0.00 | 0.00 | 0.00 | 59 | 1013.1 |
| 20260508061540 | 50 | 157 | 0.0 | 3.0 | 0.00 | 0.00 | 0.00 | 55 | 1013.2 |
| 20260508060043 | 51 | 156 | 1.0 | 5.0 | 0.00 | 0.00 | 0.00 | 55 | 1013.1 |
| 20260508054545 | 53 | 216 | 2.0 | 9.0 | 0.00 | 0.00 | 0.00 | 50 | 1013.1 |
| 20260508053038 | 53 | 263 | 6.0 | 15.0 | 0.00 | 0.00 | 0.00 | 52 | 1013.1 |